"Pseudo-MPEC" for P22oVrA

Created 2026 Aug 10 23:35:16 UT using Find_Orb

Click here for an explanation of pseudo-MPECs

 
 Astrometry: 
     P22oVrA*0C2026 08 06.49220022 31 40.199-22 26 37.25   ~86J5 21.00wXNEOCPF52
     P22oVrA 0C2026 08 06.51257822 31 37.390-22 26 04.55   ~86J5 20.57wXNEOCPF52
     P22oVrA 0C2026 08 06.52294322 31 35.894-22 25 47.25   ~86J5 19.30wXNEOCPF52
     P22oVrA 3C2026 08 07.47165322 29 28.873-22 00 11.89   ~87DZ 20.37GVNEOCPT14
     P22oVrA 3C2026 08 07.47308422 29 28.674-22 00 09.53   ~87DZ 20.31GVNEOCPT14
     P22oVrA 3C2026 08 07.47405422 29 28.539-22 00 08.01   ~87DZ 20.39GVNEOCPT14
     P22oVrA 3C2026 08 07.47502422 29 28.405-22 00 06.46   ~87DZ 20.36GVNEOCPT14

Station data:
(F52) Pan-STARRS 2, Haleakala  (N20.707382 W156.255910)  US/Hawaii.
   Observers J. Herman, T. Lowe, P. Minguez, A. Schultz, I. Smith. Measurers
   K. Chambers, T. de Boer, J. Fairlamb, H. Gao, M. Huber, C.-C. Lin, E.
   Magnier, Y. Ramanjooloo, R. Wainscoat, R. Weryk. 1.8-m Ritchey-Chrétien +
   CCD.
(T14) Mauna Kea-UH/Tholen NEO Follow-Up (CFHT)  (N19.825252 W155.468876)
   US/Hawaii.  Observer R. Weryk. 3.6-m Canada-France-Hawaii Telescope.

Orbital elements:  P22oVrA
   Perihelion 2026 Jun 15.697075 +/- 71 TT = 16:43:47.3 (JD 2461207.197075)
Epoch 2026 Aug  7.0 TT = JDT 2461259.5   Earth MOID: 0.5269      AutoNEOCP
M  18.749655475 +/- 26              (J2000 ecliptic)
n   0.358481969 +/- 0.113           Peri.  318.779227 +/- 48
a   1.962567056 +/- 0.411           Node   329.480681 +/- 1.1
e   0.23856390 +/- 0.139            Incl.   23.962469 +/- 5.3
P   2.74939                H 20.04  G  0.15   U 11.3  SR
q 1.494369391 +/- 0.157    Q 2.430764721 +/- 1
From 7 observations 2026 Aug. 6-7 (23.6 hr); mean residual 0".18
Residuals in arcseconds: 
260806 F52  .24-  .13-    260807 T14  .07-  .01+    260807 T14  .07+  .04-    
260806 F52  .42+  .22-    260807 T14  .02-  .04+    
260806 F52  .18-  .36+    260807 T14  .02+  .01-    

Ephemerides (geocentric):
Date (UTC) HH   RA             Dec           delta  r     elong  mag " sig PA
---- --------  ------------   ------------  ------ ------ -----  --- --------
2026 08 11 00  22 21 23.561   -20 22 20.32  .54106 1.5426 165.0 20.3  254  49
2026 08 11 01  22 21 17.750   -20 21 09.83  .54104 1.5426 165.0 20.3  260  49
2026 08 11 02  22 21 11.938   -20 19 59.32  .54102 1.5427 165.1 20.3  265  49
2026 08 11 03  22 21 06.124   -20 18 48.78  .54101 1.5428 165.2 20.3  271  49
2026 08 11 04  22 21 00.309   -20 17 38.21  .54099 1.5428 165.2 20.3  276  49
2026 08 11 05  22 20 54.492   -20 16 27.62  .54097 1.5429 165.3 20.3  282  49
2026 08 11 06  22 20 48.675   -20 15 17.00  .54096 1.5430 165.3 20.3  288  49
2026 08 11 07  22 20 42.856   -20 14 06.36  .54094 1.5430 165.4 20.3  294  49
2026 08 11 08  22 20 37.035   -20 12 55.69  .54092 1.5431 165.5 20.3  299  49
2026 08 11 09  22 20 31.214   -20 11 44.99  .54091 1.5432 165.5 20.3  305  49
2026 08 11 10  22 20 25.391   -20 10 34.27  .54089 1.5432 165.6 20.3  311  49
2026 08 11 11  22 20 19.567   -20 09 23.52  .54088 1.5433 165.6 20.3  317  49
2026 08 11 12  22 20 13.742   -20 08 12.74  .54087 1.5434 165.7 20.3  323  49
2026 08 11 13  22 20 07.916   -20 07 01.94  .54085 1.5434 165.7 20.3  330  49
2026 08 11 14  22 20 02.089   -20 05 51.12  .54084 1.5435 165.8 20.3  336  49
2026 08 11 15  22 19 56.260   -20 04 40.26  .54083 1.5436 165.9 20.3  342  49
2026 08 11 16  22 19 50.431   -20 03 29.39  .54082 1.5437 165.9 20.3  348  49
2026 08 11 17  22 19 44.600   -20 02 18.49  .54080 1.5437 166.0 20.3  355  49
2026 08 11 18  22 19 38.768   -20 01 07.56  .54079 1.5438 166.0 20.3  361  49
2026 08 11 19  22 19 32.936   -19 59 56.61  .54078 1.5439 166.1 20.3  368  49
2026 08 11 20  22 19 27.102   -19 58 45.63  .54077 1.5439 166.2 20.3  374  49
2026 08 11 21  22 19 21.267   -19 57 34.63  .54076 1.5440 166.2 20.3  381  49
2026 08 11 22  22 19 15.431   -19 56 23.60  .54075 1.5441 166.3 20.3  388  49
2026 08 11 23  22 19 09.594   -19 55 12.55  .54074 1.5441 166.3 20.3  394  49
2026 08 12 00  22 19 03.757   -19 54 01.48  .54073 1.5442 166.4 20.3  401  49
2026 08 12 01  22 18 57.918   -19 52 50.38  .54072 1.5443 166.4 20.3  408  49
2026 08 12 02  22 18 52.079   -19 51 39.25  .54072 1.5444 166.5 20.3  415  49
2026 08 12 03  22 18 46.238   -19 50 28.11  .54071 1.5444 166.6 20.2  422  49
2026 08 12 04  22 18 40.397   -19 49 16.94  .54070 1.5445 166.6 20.2  429  49
2026 08 12 05  22 18 34.555   -19 48 05.74  .54070 1.5446 166.7 20.2  436  49
2026 08 12 06  22 18 28.712   -19 46 54.52  .54069 1.5446 166.7 20.2  443  49
2026 08 12 07  22 18 22.868   -19 45 43.28  .54068 1.5447 166.8 20.2  450  49
2026 08 12 08  22 18 17.023   -19 44 32.01  .54068 1.5448 166.9 20.2  458  49
2026 08 12 09  22 18 11.178   -19 43 20.72  .54067 1.5448 166.9 20.2  465  49
2026 08 12 10  22 18 05.332   -19 42 09.41  .54067 1.5449 167.0 20.2  472  49
2026 08 12 11  22 17 59.485   -19 40 58.08  .54066 1.5450 167.0 20.2  480  49
2026 08 12 12  22 17 53.637   -19 39 46.72  .54066 1.5451 167.1 20.2  487  49
2026 08 12 13  22 17 47.789   -19 38 35.34  .54066 1.5451 167.1 20.2  495  49
2026 08 12 14  22 17 41.940   -19 37 23.93  .54065 1.5452 167.2 20.2  503  49
2026 08 12 15  22 17 36.091   -19 36 12.51  .54065 1.5453 167.3 20.2  510  49
2026 08 12 16  22 17 30.240   -19 35 01.06  .54065 1.5453 167.3 20.2  518  49
2026 08 12 17  22 17 24.389   -19 33 49.59  .54065 1.5454 167.4 20.2  526  49
2026 08 12 18  22 17 18.538   -19 32 38.09  .54065 1.5455 167.4 20.2  534  49
2026 08 12 19  22 17 12.686   -19 31 26.58  .54065 1.5455 167.5 20.2  542  49
2026 08 12 20  22 17 06.833   -19 30 15.04  .54065 1.5456 167.6 20.2  550  49
2026 08 12 21  22 17 00.980   -19 29 03.48  .54065 1.5457 167.6 20.2  558  49
2026 08 12 22  22 16 55.127   -19 27 51.90  .54065 1.5458 167.7 20.2  566  49
2026 08 12 23  22 16 49.272   -19 26 40.30  .54065 1.5458 167.7 20.2  574  49